Location: Copper Breaks State Park
(34.1132°N, 99.7492°W)
Time: 05:47:52
(UTC-06:00)

Amateur Radio Satellites - All Passes

Search period start: 27 February 2017 05:17
Search period end: 28 February 2017 05:17
Location: Copper Breaks State Park, 34.1132°N, 99.7492°W

Satellite Date Start Highest point End Downlink Frequencies (MHz)
Time Altitude Azimuth
M-CUBED/EXP-1 PRIME 27 Feb 05:30:03 05:33:10 42° 255° (WSW) 05:36:17 437.505
STARS 27 Feb 05:42:23 05:46:03 26° 263° (W) 05:49:44 437.465
KAITUO 1B 27 Feb 05:57:22 05:59:03 13° 93° (E) 06:00:43 145.475/437.950
RS-15 27 Feb 05:59:00 06:01:55 11° 265° (W) 06:04:50 29.354- 29.394
BEESAT 3 27 Feb 05:59:47 06:03:38 89° 118° (ESE) 06:07:36 437.485
CUBESAT XI-V 27 Feb 06:03:53 06:06:01 13° 268° (W) 06:08:10 437.345
XW-2F 27 Feb 06:04:29 06:07:18 20° 95° (E) 06:10:04 145.980 - 146.000
XW-2D 27 Feb 06:10:04 06:13:15 25° 96° (E) 06:16:23 145.860 - 145.880
XW-2B 27 Feb 06:15:03 06:18:22 28° 97° (E) 06:21:38 145.730 - 145.750
XW-2C 27 Feb 06:23:36 06:27:09 37° 98° (E) 06:30:39 145.795 - 145.815
NUDT-PHONESAT 27 Feb 06:28:18 06:31:44 33° 98° (E) 06:35:06 437.300
AO-7 27 Feb 06:30:21 06:34:59 16° 306° (NW) 06:39:37 .
DOVE 4 27 Feb 06:32:03 06:36:51 60° 101° (E) 06:41:53 437.250
LilacSat-2 27 Feb 06:42:25 06:46:15 73° 101° (E) 06:50:02 437.200
BEESAT 2 27 Feb 06:42:28 06:46:23 76° 298° (WNW) 06:50:23 435.950
ISS 27 Feb 06:45:11 06:48:16 39° 132° (SE) 06:51:21 437.550
HO-68 27 Feb 06:58:31 07:03:03 18° 93° (E) 07:07:34 435.675
Tancredo 1 27 Feb 07:05:33 07:08:48 77° 135° (SE) 07:12:02 437.200
CUTE-I 27 Feb 07:07:06 07:12:30 84° 283° (WNW) 07:17:52 437.470
XW-2A 27 Feb 07:09:44 07:12:04 17° 95° (E) 07:14:23 145.665 - 145.685
STRAND 1 27 Feb 07:14:27 07:19:35 80° 75° (ENE) 07:24:45 437.568
SO-50 27 Feb 07:15:02 07:19:29 60° 59° (ENE) 07:23:53 436.795
KAITUO 1B 27 Feb 07:29:47 07:33:08 31° 287° (WNW) 07:36:27 145.475/437.950
XW-2F 27 Feb 07:38:25 07:41:19 21° 289° (WNW) 07:44:12 145.980 - 146.000
XW-2D 27 Feb 07:44:42 07:47:13 17° 290° (WNW) 07:49:43 145.860 - 145.880
XW-2B 27 Feb 07:50:01 07:52:18 15° 291° (WNW) 07:54:33 145.730 - 145.750
CUTE 1.7 + AOD 2 27 Feb 07:52:32 07:56:34 44° 99° (E) 08:00:34 437.475
O/OREOS (USA 219) 27 Feb 07:55:39 07:58:51 18° 61° (ENE) 08:02:03 437.305
XW-2C 27 Feb 07:59:30 08:00:57 12° 292° (WNW) 08:02:24 145.795 - 145.815
NUDT-PHONESAT 27 Feb 08:03:39 08:05:18 13° 292° (WNW) 08:06:56 437.300
DOVE 4 27 Feb 08:11:51 08:14:04 13° 293° (WNW) 08:16:19 437.250
ISS 27 Feb 08:22:25 08:24:50 19° 327° (NNW) 08:27:15 437.550
AAUSAT CUBESAT 2 27 Feb 08:28:54 08:32:41 35° 98° (E) 08:36:26 437.432
CUBEBUG 2 27 Feb 08:32:23 08:37:06 58° 100° (E) 08:41:41 437.445
AO-73 27 Feb 08:33:50 08:36:52 18° 93° (E) 08:39:50 145.935
Oscar 11 27 Feb 08:38:01 08:40:42 16° 94° (E) 08:43:23 .
XW-2A 27 Feb 08:42:10 08:44:44 20° 289° (WNW) 08:47:17 145.665 - 145.685
Tancredo 1 27 Feb 08:43:53 08:45:24 13° 331° (NNW) 08:46:55 437.200
HO-68 27 Feb 08:44:08 08:51:15 70° 288° (WNW) 08:58:20 435.675
UNISAT 6 27 Feb 08:45:10 08:45:58 10° 64° (ENE) 08:46:45 437.425
SEEDS 27 Feb 08:45:44 08:49:51 60° 284° (WNW) 08:53:56 437.485
SO-50 27 Feb 08:58:20 08:59:22 11° 253° (WSW) 09:00:23 436.795
UWE-3 27 Feb 09:05:18 09:09:59 84° 102° (ESE) 09:14:32 435.000/436.395/437.385
ZACube-1 27 Feb 09:21:31 09:26:04 74° 101° (ESE) 09:30:28 437.345
PRISM 27 Feb 09:27:43 09:31:47 89° 234° (SW) 09:35:53 437.425
CUTE 1.7 + AOD 2 27 Feb 09:30:11 09:31:58 12° 293° (WNW) 09:33:45 437.475
O/OREOS (USA 219) 27 Feb 09:34:09 09:38:21 36° 256° (WSW) 09:42:31 437.305
FO-29 27 Feb 09:42:36 09:48:51 33° 66° (ENE) 09:55:32 435.910
DELFI C3 27 Feb 09:42:42 09:46:02 26° 97° (E) 09:49:20 145.870
YUBILEINY 27 Feb 09:57:36 10:05:39 42° 88° (E) 10:13:42 435.215
AAUSAT CUBESAT 2 27 Feb 10:05:31 10:07:48 15° 292° (WNW) 10:10:05 437.432
AO-73 27 Feb 10:09:05 10:13:09 34° 288° (WNW) 10:17:07 145.935
CUBEBUG 2 27 Feb 10:11:08 10:13:07 13° 295° (WNW) 10:15:05 437.445
Oscar 11 27 Feb 10:13:00 10:16:54 34° 287° (WNW) 10:20:46 .
TIGRISAT 27 Feb 10:17:09 10:21:36 72° 258° (WSW) 10:26:12 435.000
UNISAT 6 27 Feb 10:17:34 10:22:01 65° 260° (W) 10:26:36 437.425
HO-68 27 Feb 10:36:16 10:37:41 11° 305° (NW) 10:39:06 435.675
DUCHIFAT 1 27 Feb 10:38:59 10:40:41 12° 66° (ENE) 10:42:23 145.980
EO-79 27 Feb 10:50:48 10:53:57 21° 70° (ENE) 10:57:08 145.935-145.965
ESTCUBE 1 27 Feb 10:57:46 10:59:29 12° 92° (E) 11:01:11 437.505/2401.250
NANOSAT C BR1 27 Feb 11:05:49 11:09:26 28° 71° (ENE) 11:13:05 145.865
POLYITAN 1 27 Feb 11:08:16 11:12:05 34° 72° (ENE) 11:15:56 437.675
QB50P2 27 Feb 11:11:12 11:15:09 39° 73° (ENE) 11:19:08 145.880/145.840
AIST 2D 27 Feb 11:17:24 11:20:56 79° 77° (ENE) 11:24:31 435.315
DELFI C3 27 Feb 11:17:58 11:20:36 17° 290° (WNW) 11:23:13 145.870
LO-87 27 Feb 11:19:12 11:22:41 46° 99° (E) 11:26:11 145.935 - 145.965
BUGSAT 1 27 Feb 11:26:24 11:28:30 14° 67° (ENE) 11:30:37 437.445
FO-29 27 Feb 11:26:51 11:33:30 44° 263° (W) 11:40:48 435.910
YUBILEINY 27 Feb 11:54:26 12:02:23 37° 285° (WNW) 12:10:21 435.215
DUCHIFAT 1 27 Feb 12:11:52 12:15:53 46° 261° (W) 12:19:58 145.980
EO-79 27 Feb 12:26:00 12:29:32 26° 263° (W) 12:33:06 145.935-145.965
Gurwin Techsat 1B 27 Feb 12:28:52 12:31:12 13° 63° (ENE) 12:33:32 435.225
ESTCUBE 1 27 Feb 12:32:11 12:36:30 49° 286° (WNW) 12:40:48 437.505/2401.250
DX 1 27 Feb 12:32:15 12:35:18 19° 95° (E) 12:38:22 434.975-435.025
SPROUT 27 Feb 12:38:05 12:42:13 45° 99° (E) 12:46:20 437.525
UKube-1 27 Feb 12:40:03 12:42:39 16° 94° (E) 12:45:16 .
NANOSAT C BR1 27 Feb 12:42:10 12:45:07 19° 265° (W) 12:48:07 145.865
POLYITAN 1 27 Feb 12:45:20 12:47:56 16° 266° (W) 12:50:33 437.675
VELOX 1 27 Feb 12:47:17 12:51:42 73° 103° (ESE) 12:56:06 145.980
QB50P2 27 Feb 12:48:59 12:51:04 13° 267° (W) 12:53:10 145.880/145.840
AO-85 27 Feb 12:57:44 13:01:20 34° 57° (ENE) 13:05:00 145.980
BUGSAT 1 27 Feb 12:59:44 13:03:29 37° 262° (W) 13:07:18 437.445
Oscar 19 27 Feb 13:01:36 13:06:34 52° 73° (ENE) 13:11:33 437.125/150
50 SAT 27 Feb 13:11:07 13:14:35 72° 283° (WNW) 13:18:01 437.505
ISS 27 Feb 13:16:58 13:18:26 12° 28° (NNE) 13:19:54 437.550
Tancredo 1 27 Feb 13:36:10 13:38:24 17° 32° (NNE) 13:40:38 437.200
AO-7 27 Feb 13:40:47 13:46:05 19° 56° (NE) 13:51:23 .
ITAMSAT 1 27 Feb 13:44:14 13:45:54 12° 62° (ENE) 13:47:35 435.822/435.867
Gurwin Techsat 1B 27 Feb 14:05:13 14:10:30 69° 258° (WSW) 14:15:48 435.225
DX 1 27 Feb 14:07:39 14:11:29 31° 289° (WNW) 14:15:19 434.975-435.025
UKube-1 27 Feb 14:14:49 14:18:46 35° 288° (WNW) 14:22:42 .
SPROUT 27 Feb 14:15:41 14:17:42 13° 293° (WNW) 14:19:43 437.525
BEESAT 3 27 Feb 14:20:58 14:23:36 17° 51° (NE) 14:26:13 437.485
AO-85 27 Feb 14:39:12 14:41:25 15° 250° (WSW) 14:43:40 145.980
Oscar 19 27 Feb 14:43:13 14:46:07 15° 267° (W) 14:49:01 437.125/150
ISS 27 Feb 14:51:59 14:55:16 81° 225° (SW) 14:58:32 437.550
BEESAT 2 27 Feb 15:04:17 15:07:18 20° 53° (NE) 15:10:18 435.950
Tancredo 1 27 Feb 15:11:46 15:14:49 41° 227° (SW) 15:17:50 437.200
ITUPSAT 1 27 Feb 15:13:52 15:18:34 54° 101° (E) 15:23:13 437.325
BEESAT 27 Feb 15:18:45 15:23:30 63° 101° (ESE) 15:28:13 436.000
MOZHAYETS 4 27 Feb 15:18:55 15:22:23 21° 95° (E) 15:25:48
ITAMSAT 1 27 Feb 15:19:28 15:24:39 76° 257° (WSW) 15:29:53 435.822/435.867
AO-7 27 Feb 15:29:24 15:37:47 87° 253° (WSW) 15:46:12 .
PCSat 27 Feb 15:33:11 15:38:22 50° 111° (ESE) 15:43:36 145.827
RS-15 27 Feb 15:47:34 15:56:49 28° 102° (ESE) 16:06:17 29.354- 29.394
BEESAT 3 27 Feb 15:57:37 16:01:19 36° 247° (WSW) 16:04:58 437.485
CUBESAT XI-V 27 Feb 16:25:23 16:28:14 16° 94° (E) 16:31:04 437.345
NO-84 27 Feb 16:26:33 16:29:34 60° 314° (NW) 16:32:51 435.350 FM
BEESAT 2 27 Feb 16:41:32 16:45:05 30° 248° (WSW) 16:48:36 435.950
CUTE-I 27 Feb 16:49:05 16:51:05 12° 62° (ENE) 16:53:05 437.470
ITUPSAT 1 27 Feb 16:53:31 16:55:53 14° 295° (WNW) 16:58:14 437.325
MOZHAYETS 4 27 Feb 16:55:30 16:59:31 30° 289° (WNW) 17:03:28
BEESAT 27 Feb 16:59:00 17:00:41 12° 296° (WNW) 17:02:22 436.000
XW-2C 27 Feb 17:03:19 17:04:39 12° 68° (ENE) 17:05:58 145.795 - 145.815
KKS-1 27 Feb 17:07:29 17:11:59 84° 102° (ESE) 17:16:28 437.445
M-CUBED/EXP-1 PRIME 27 Feb 17:12:03 17:14:18 14° 100° (E) 17:16:37 437.505
PCSat 27 Feb 17:18:03 17:22:00 20° 307° (NW) 17:26:00 145.827
LilacSat-2 27 Feb 17:21:09 17:24:04 21° 71° (ENE) 17:27:01 437.200
AO-7 27 Feb 17:27:33 17:31:25 14° 268° (W) 17:35:17 .
STARS 27 Feb 17:34:25 17:38:51 72° 103° (ESE) 17:43:16 437.465
DOVE 4 27 Feb 17:34:41 17:38:24 34° 73° (ENE) 17:42:10 437.250
RS-15 27 Feb 17:56:13 18:08:03 73° 301° (WNW) 18:20:27 29.354- 29.394
CUBESAT XI-V 27 Feb 18:01:27 18:05:42 38° 287° (WNW) 18:09:56 437.345
KAITUO 1B 27 Feb 18:05:23 18:09:08 61° 76° (ENE) 18:12:54 145.475/437.950
XW-2F 27 Feb 18:14:25 18:18:14 81° 258° (WSW) 18:22:06 145.980 - 146.000
XW-2D 27 Feb 18:20:43 18:24:31 61° 260° (W) 18:28:21 145.860 - 145.880
CUTE-I 27 Feb 18:25:06 18:30:25 75° 258° (WSW) 18:35:47 437.470
XW-2B 27 Feb 18:25:53 18:29:39 53° 260° (W) 18:33:26 145.730 - 145.750
XW-2C 27 Feb 18:34:48 18:38:26 39° 261° (W) 18:42:05 145.795 - 145.815
NUDT-PHONESAT 27 Feb 18:37:17 18:40:53 45° 261° (W) 18:44:33 437.300
CUTE 1.7 + AOD 2 27 Feb 18:42:03 18:45:11 20° 70° (ENE) 18:48:20 437.475
M-CUBED/EXP-1 PRIME 27 Feb 18:45:06 18:48:45 37° 290° (WNW) 18:52:39 437.505
LilacSat-2 27 Feb 18:55:12 18:58:12 21° 264° (W) 19:01:14 437.200
HO-68 27 Feb 19:08:04 19:15:05 61° 71° (ENE) 19:22:07 435.675
XW-2A 27 Feb 19:08:52 19:12:14 67° 76° (ENE) 19:15:38 145.665 - 145.685
DOVE 4 27 Feb 19:13:59 19:16:13 14° 267° (W) 19:18:28 437.250
AAUSAT CUBESAT 2 27 Feb 19:16:30 19:18:54 15° 68° (ENE) 19:21:18 437.432
CUBEBUG 2 27 Feb 19:26:49 19:30:39 30° 71° (ENE) 19:34:37 437.445
STRAND 1 27 Feb 19:29:04 19:33:48 36° 98° (E) 19:38:30 437.568
SEEDS 27 Feb 19:33:11 19:37:17 53° 75° (ENE) 19:41:25 437.485
JUGNU 27 Feb 19:46:48 19:49:29 13° 167° (SSE) 19:52:11 437.505
UWE-3 27 Feb 19:58:11 20:02:22 41° 73° (ENE) 20:06:41 435.000/436.395/437.385
ZACube-1 27 Feb 20:13:18 20:17:21 35° 72° (ENE) 20:21:28 437.345
YUBILEINY 27 Feb 20:14:13 20:19:01 16° 66° (ENE) 20:23:46 435.215
RS-15 27 Feb 20:14:15 20:23:11 23° 327° (NNW) 20:32:19 29.354- 29.394
CUTE 1.7 + AOD 2 27 Feb 20:17:10 20:20:49 27° 264° (W) 20:24:29 437.475
AAUSAT CUBESAT 2 27 Feb 20:50:14 20:54:02 35° 262° (W) 20:57:51 437.432
HO-68 27 Feb 20:57:58 21:03:08 21° 265° (W) 21:08:20 435.675
AO-73 27 Feb 20:59:42 21:04:08 72° 259° (W) 21:08:40 145.935
Oscar 11 27 Feb 21:03:08 21:07:28 75° 257° (WSW) 21:11:50 .
CUBEBUG 2 27 Feb 21:03:56 21:07:15 21° 266° (W) 21:10:39 437.445
STRAND 1 27 Feb 21:08:47 21:12:42 22° 293° (WNW) 21:16:36 437.568
PRISM 27 Feb 21:13:54 21:16:25 16° 95° (E) 21:18:55 437.425
SO-50 27 Feb 21:25:21 21:29:51 47° 115° (ESE) 21:34:19 436.795
JUGNU 27 Feb 21:33:45 21:37:46 19° 177° (S) 21:41:48 437.505
UWE-3 27 Feb 21:36:28 21:38:59 15° 268° (W) 21:41:33 435.000/436.395/437.385
ZACube-1 27 Feb 21:50:44 21:53:40 17° 267° (W) 21:56:41 437.345
LO-87 27 Feb 21:54:13 21:55:08 11° 68° (ENE) 21:56:04 145.935 - 145.965
DELFI C3 27 Feb 21:58:19 22:02:10 51° 260° (W) 22:06:01 145.870
O/OREOS (USA 219) 27 Feb 22:03:21 22:07:30 39° 104° (ESE) 22:11:41 437.305
YUBILEINY 27 Feb 22:08:09 22:16:55 89° 265° (W) 22:25:37 435.215
TIGRISAT 27 Feb 22:12:40 22:16:52 32° 97° (E) 22:20:58 435.000
UNISAT 6 27 Feb 22:13:10 22:17:28 35° 98° (E) 22:21:40 437.425
RS-15 27 Feb 22:38:06 22:42:53 13° 4° (N) 22:47:39 29.354- 29.394
SRMSAT 27 Feb 22:38:59 22:42:16 15° 168° (SSE) 22:45:34 437.500
FO-29 27 Feb 22:41:21 22:48:08 38° 95° (E) 22:54:13 435.910
PRISM 27 Feb 22:48:06 22:51:43 31° 288° (WNW) 22:55:20 437.425
NO-84 27 Feb 23:03:31 23:06:31 19° 37° (NE) 23:09:37 435.350 FM
SO-50 27 Feb 23:07:22 23:10:32 18° 310° (NW) 23:13:41 436.795
JUGNU 27 Feb 23:22:17 23:26:05 18° 187° (S) 23:29:54 437.505
LO-87 27 Feb 23:25:00 23:28:13 33° 261° (W) 23:31:29 145.935 - 145.965
DX 1 27 Feb 23:26:33 23:27:20 10° 65° (ENE) 23:28:08 434.975-435.025
ESTCUBE 1 27 Feb 23:27:22 23:31:53 88° 253° (WSW) 23:36:25 437.505/2401.250
SPROUT 27 Feb 23:28:21 23:31:34 21° 70° (ENE) 23:34:48 437.525
VELOX 1 27 Feb 23:40:48 23:44:51 38° 73° (ENE) 23:48:55 145.980
50 SAT 27 Feb 23:41:58 23:44:42 21° 72° (ENE) 23:47:25 437.505
O/OREOS (USA 219) 27 Feb 23:44:13 23:47:03 16° 300° (WNW) 23:49:53 437.305
TIGRISAT 27 Feb 23:49:49 23:53:17 21° 292° (WNW) 23:56:43 435.000
UNISAT 6 27 Feb 23:50:34 23:53:51 19° 292° (WNW) 23:57:05 437.425
DUCHIFAT 1 27 Feb 23:59:31 00:03:26 34° 98° (E) 00:07:17 145.980
YUBILEINY 28 Feb 00:08:29 00:12:21 14° 282° (WNW) 00:16:14 435.215
EO-79 28 Feb 00:13:26 00:17:42 64° 101° (E) 00:21:56 145.935-145.965
AIST 2D 28 Feb 00:19:27 00:22:52 46° 285° (WNW) 00:26:15 435.315
PCSat 28 Feb 00:25:33 00:29:27 20° 52° (NE) 00:33:20 145.827
FO-29 28 Feb 00:26:24 00:32:57 35° 294° (WNW) 00:38:56 435.910
SRMSAT 28 Feb 00:26:30 00:30:45 20° 178° (S) 00:35:00 437.500
NANOSAT C BR1 28 Feb 00:28:34 00:32:51 90° 258° (WSW) 00:37:07 145.865
POLYITAN 1 28 Feb 00:31:52 00:36:10 74° 285° (WNW) 00:40:25 437.675
QB50P2 28 Feb 00:35:01 00:39:15 62° 285° (WNW) 00:43:28 145.880/145.840
NO-84 28 Feb 00:40:19 00:44:26 56° 231° (SW) 00:48:45 435.350 FM
BUGSAT 1 28 Feb 00:44:45 00:48:45 38° 99° (E) 00:52:42 437.445
RS-15 28 Feb 00:51:38 01:01:48 28° 39° (NE) 01:11:37 29.354- 29.394
DX 1 28 Feb 00:58:43 01:02:58 58° 259° (W) 01:07:14 434.975-435.025
SPROUT 28 Feb 01:03:46 01:07:19 26° 264° (W) 01:10:53 437.525
UKube-1 28 Feb 01:04:52 01:09:08 71° 258° (WSW) 01:13:26 .
JUGNU 28 Feb 01:13:24 01:14:22 10° 196° (SSW) 01:15:20 437.505
50 SAT 28 Feb 01:15:31 01:17:44 16° 265° (W) 01:19:57 437.505
Oscar 19 28 Feb 01:17:28 01:21:36 24° 96° (E) 01:25:43 437.125/150
VELOX 1 28 Feb 01:18:57 01:21:25 15° 266° (W) 01:23:53 145.980
DUCHIFAT 1 28 Feb 01:36:06 01:38:46 16° 292° (WNW) 01:41:25 145.980
PCSat 28 Feb 02:07:53 02:13:08 52° 249° (WSW) 02:18:22 145.827
SRMSAT 28 Feb 02:15:27 02:19:15 17° 189° (S) 02:23:04 437.500
ITUPSAT 1 28 Feb 02:16:49 02:21:18 41° 72° (ENE) 02:25:48 437.325
MOZHAYETS 4 28 Feb 02:18:16 02:20:37 14° 66° (ENE) 02:22:58
BEESAT 28 Feb 02:21:16 02:25:51 47° 73° (ENE) 02:30:26 436.000
BUGSAT 1 28 Feb 02:21:20 02:23:44 15° 292° (WNW) 02:26:08 437.445
Gurwin Techsat 1B 28 Feb 02:25:12 02:30:30 65° 102° (ESE) 02:35:46 435.225
Oscar 19 28 Feb 02:56:22 03:00:53 32° 290° (WNW) 03:05:23 437.125/150
RS-15 28 Feb 03:03:40 03:15:59 87° 243° (WSW) 03:27:40 29.354- 29.394
AO-85 28 Feb 03:08:18 03:12:25 31° 113° (ESE) 03:16:17 145.980
CUBESAT XI-V 28 Feb 03:26:50 03:28:08 11° 65° (ENE) 03:29:25 437.345
AO-7 28 Feb 03:35:44 03:43:25 40° 100° (E) 03:51:02 .
ITAMSAT 1 28 Feb 03:36:11 03:41:17 52° 101° (E) 03:46:20 435.822/435.867
MOZHAYETS 4 28 Feb 03:52:48 03:57:17 49° 260° (W) 04:01:49
ITUPSAT 1 28 Feb 03:56:09 03:59:14 17° 266° (W) 04:02:20 437.325
BEESAT 28 Feb 04:01:11 04:03:48 15° 266° (W) 04:06:27 436.000
KKS-1 28 Feb 04:01:40 04:05:53 47° 73° (ENE) 04:10:08 437.445
Gurwin Techsat 1B 28 Feb 04:07:14 04:09:50 14° 296° (WNW) 04:12:25 435.225
STARS 28 Feb 04:27:16 04:31:19 38° 72° (ENE) 04:35:22 437.465
AO-85 28 Feb 04:49:11 04:52:48 23° 306° (NW) 04:56:14 145.980
CUBESAT XI-V 28 Feb 05:00:18 05:04:55 63° 259° (W) 05:09:32 437.345
